Location: Newark
(48.6767°N, 1.3256°E)
Time: 13:14:42
(UTC+00:00)

ISS - Pass Details

Date: 25 November 2019
Orbit: 411 x 421 km, 51.6° (Epoch: 10 December)

Event Time Altitude Azimuth Distance (km) Brightness Sun altitude
Rises 18:10:53 0° 242° (WSW) 2,351 1.3 -20.2°
Reaches altitude 10° 18:12:58 10° 241° (WSW) 1,492 0.0 -20.5°
Enters shadow 18:15:59 66° 207° (SSW) 461 -3.6 -21.0°
